Meteo Giornale » Osservazioni meteo Italia » Palermo-Punta Raisi

ore: 04:50 - Osservazioni Meteo Palermo-Punta Raisi
Lat. 38° 11' N Lon. 13° 6' E Alt. 21 metri s.l.m.

sereno Europe/Rome

22 °C

Sereno

Temp. 24 Ore

21 °C

29 °C

Nord-Est

9.3 Km/h

Dew point 16 °C

Umidità 68 %

Visibilità  10 Km

Il sole sorge alle ore 05:43

Il sole tramonta alle ore 20:36

Data e Ora Cielo e Fenomeni T °C DP °C Um. % Pres. hPa Vis. km Vento km/h
Oggi h: 04:50 sereno Sereno 22 16 68 1018 10 NE 9.3
Oggi h: 04:20 sereno Sereno 22 16 68 1018 10 NE 9.3
Oggi h: 03:50 sereno Sereno 22 14 60 1018 10 N 3.7
Oggi h: 03:20 sereno Sereno 22 14 60 1018 10 N 3.7
Oggi h: 02:50 sereno Sereno 21 13 60 1018 10 N 3.7
Oggi h: 02:20 sereno Sereno 21 15 68 1018 10 N 3.7
Oggi h: 01:20 sereno Sereno 22 17 73 1019 10 N 3.7
Oggi h: 00:20 sereno Sereno 22 18 78 1019 10 N 3.7
Ieri h: 23:50 sereno Sereno 23 18 73 1019 10 N 1.8
Ieri h: 23:20 sereno Sereno 24 17 64 1019 10 SE 9.3
Ieri h: 22:50 sereno Sereno 25 17 61 1018 10 E/NE 16.7
Ieri h: 22:20 sereno Sereno 25 17 61 1018 10 E/NE 16.7
Ieri h: 21:20 sereno Sereno 25 18 65 1018 10 E/NE 18.5
Ieri h: 20:50 sereno Sereno 25 17 61 1018 10 NE 20.3
Ieri h: 20:20 sereno Sereno 26 17 57 1018 10 E/NE 31.5
Ieri h: 19:50 sereno Sereno 26 18 61 1018 10 E/NE 29.6
Ieri h: 19:20 sereno Sereno 26 19 65 1017 10 E/NE 29.6
Ieri h: 18:50 sereno Sereno 27 18 57 1017 10 E/NE 29.6
Ieri h: 18:20 sereno Sereno 27 17 54 1017 10 E/NE 35.2
Ieri h: 17:50 sereno Sereno 27 18 57 1017 10 E/NE 35.2
Ieri h: 17:20 sereno Sereno 28 19 58 1017 10 E/NE 31.5
Ieri h: 16:50 sereno Sereno 28 19 58 1017 10 E/NE 33.3
Ieri h: 16:20 sereno Sereno 28 19 58 1017 10 E/NE 35.2
Ieri h: 15:50 sereno Sereno 28 19 58 1017 10 E/NE 35.2
Ieri h: 15:20 sereno Sereno 28 19 58 1017 10 E/NE 37
Ieri h: 14:50 sereno Sereno 28 20 61 1017 10 E/NE 37
Ieri h: 14:20 sereno Sereno 28 20 61 1018 10 E/NE 35.2
Ieri h: 13:50 sereno Sereno 28 19 58 1018 10 E/NE 31.5
Ieri h: 13:20 sereno Sereno 29 18 51 1018 10 E/NE 31.5
Ieri h: 12:50 sereno Sereno 28 18 54 1018 10 E/NE 33.3
Ieri h: 12:20 sereno Sereno 28 19 58 1018 10 NE 27.8
Ieri h: 11:50 sereno Sereno 27 19 61 1018 10 NE 27.8
Ieri h: 11:20 sereno Sereno 26 20 69 1018 10 NE 27.8
Ieri h: 10:50 sereno Sereno 27 20 65 1018 10 NE 22.2
Ieri h: 10:20 sereno Sereno 27 20 65 1018 10 E/NE 18.5
Ieri h: 09:50 sereno Sereno 24 19 73 1018 10 N/NO 11.1
Ieri h: 09:20 sereno Sereno 24 18 69 1018 10 N 5.5
Ieri h: 08:50 sereno Sereno 23 18 73 1018 10 N 7.4
Ieri h: 08:20 sereno Sereno 23 18 73 1018 10 N/NE 9.3
Ieri h: 07:50 sereno Sereno 23 17 68 1017 10 N 5.5
Ieri h: 07:20 sereno Sereno 23 16 64 1017 10 N 1.8
Ieri h: 06:50 sereno Sereno 21 15 68 1017 10 N 1.8
Ieri h: 06:20 sereno Sereno 21 14 64 1017 10 N 3.7
Ieri h: 05:50 sereno Sereno 21 13 60 1017 10 N 3.7